Regional Weather Roundup
Issued by NWS Sterling, VA

Home | Current Version | Previous Version | Graphics & Text | Print | Product List | Glossary On
Versions: 1 2 3 4 5 6 7 8 9 10 11 12 13 14 15 16 17 18 19 20 21 22 23 24 25 26 27 28 29 30 31 32 33 34 35 36 37 38 39 40 41 42 43 44 45 46 47 48 49 50
000
ASUS41 KLWX 240910
RWRLWX

REGIONAL WEATHER ROUNDUP
NATIONAL WEATHER SERVICE BALTIMORE MD/WASHINGTON DC
400 AM EST MON NOV 24 2014

Note: "FAIR" indicates few or no clouds below 12,000 feet
with no significant weather and/or obstructions to visibility.
 TC=TEMPERATURE CELSIUS

 * =Non NWS site. Station does not report precipitation (e.g. rain,
    snow, etc.), thunder, or fog.

DCZ001-MDZ009-015-VAZ040>042-051-053>054-241000-
WASHINGTON METRO

CITY           SKY/WX    TMP DP  RH WIND       PRES   REMARKS
WASHINGTON NAT CLOUDY    61  56  83 S15       29.66F
DULLES         CLOUDY    62  60  93 S9        29.65R
ANDREWS AFB    CLOUDY    64  63  95 S21G31    29.66S
FT BELVOIR     MOCLDY    64  61  88 SE10      29.66F
QUANTICO       CLOUDY    56  53  90 S15       29.68R
COLLEGE PARK*  CLOUDY    64  63  94 S9        29.65S
LEESBURG*      CLOUDY    61  61 100 S6        29.65S
MANASSAS*      CLOUDY    64  63  94 S10G17    29.64R
GAITHERSBURG*  CLOUDY    63  59  88 S13G22    29.68F

$$

MDZ006>007-011-014-241000-
BALTIMORE METRO

CITY           SKY/WX    TMP DP  RH WIND       PRES   REMARKS
BWI AIRPORT    DRIZZLE   61  59  93 SE8       29.66F
MD SCIENCE CTR   N/A     59  58  96 MISG      29.68F
MARTIN STATE   CLOUDY    59  59 100 SE29G38   29.69S
ANNAPOLIS      LGT RAIN  56  55  97 S18G29    29.68F FOG
FORT MEADE*    CLOUDY    63  59  88 S10G20    29.68S

$$

MDZ012-015-019>023-241000-
MARYLAND EASTERN SHORE

CITY           SKY/WX    TMP DP  RH WIND       PRES   REMARKS
OCEAN CITY     LGT RAIN  59  58  96 S10G17    29.76F FOG
SALISBURY      CLOUDY    67  62  84 S18G26    29.75S
BAY BRIDGE AP*   N/A     61  59  94 S26G36    29.68S
CAMBRIDGE*     CLOUDY    63  59  88 S20G36    29.71S
EASTON*        CLOUDY    66  66 100 S26G41    29.73R

$$

MDZ017>025-241000-
SOUTHERN MARYLAND

CITY           SKY/WX    TMP DP  RH WIND       PRES   REMARKS
PATUXENT RIVER CLOUDY    63  60  90 S17G29    29.70S
ST INIGOES     CLOUDY    61 N/A N/A SE12G17   29.72R
LEONARDTOWN*   CLOUDY    63  59  88 S9G20     29.72

$$

MDZ003>005-241000-
NORTH CENTRAL MARYLAND

CITY           SKY/WX    TMP DP  RH WIND       PRES   REMARKS
FREDERICK*     LGT RAIN  64  59  82 S10       29.65S
HAGERSTOWN APT PTCLDY    59  56  89 S17       29.59S
WESTMINSTER*   RAIN      61  57  88 S12G24    29.63F

$$

MDZ501>502-241000-
WESTERN MARYLAND

CITY           SKY/WX    TMP DP  RH WIND       PRES   REMARKS
OAKLAND*       CLOUDY    54 N/A N/A S14G23    29.54S
CUMBERLAND*    PTCLDY    50  50 100 CALM      29.60F

$$

VAZ025>031-241000-
SHENANDOAH VALLEY

CITY           SKY/WX    TMP DP  RH WIND       PRES   REMARKS
WINCHESTER*    MOCLDY    54  50  87 W5        29.62R
FRONT ROYAL*   CLOUDY    54  52  94 CALM      29.61S
LURAY*         CLOUDY    59  59 100 SW6       29.62S
NEW MARKET*    FAIR      51  50  97 SW5       29.61F
STAUNTON*      PTCLDY    52  50  93 SE3       29.64F
WAYNESBORO*    PTSUNNY   58  53  81 S8        29.64F

$$

WVZ021-048>050-054>055-241000-
EASTERN WEST VIRGINIA PANHANDLE

CITY           SKY/WX    TMP DP  RH WIND       PRES   REMARKS
MARTINSBURG    MOCLDY    53  50  89 S3        29.61R
PETERSBURG*    PTCLDY    56  56 100 S9        29.57F

$$

VAZ036>039-050-241000-
CENTRAL FOOTHILLS

CITY           SKY/WX    TMP DP  RH WIND       PRES   REMARKS
CHARLOTTESVILL MOCLDY    55  54  96 S10       29.66S
CULPEPER*      MOCLDY    57  57 100 S3        29.64F
ORANGE*        CLOUDY    63  61  94 S8        29.67S
GORDONSVILLE*  CLOUDY    57  56  98 W6        29.66R
WARRENTON*     CLOUDY    64  64 100 S8        29.64S

$$

VAZ055>057-241000-
NORTH AND CENTRAL PIEDMONT

CITY           SKY/WX    TMP DP  RH WIND       PRES   REMARKS
FREDERICKSBRG* MOCLDY    66  64  94 S22G31    29.66F
STAFFORD*      MOCLDY    65  65 100 S10G16    29.71R

$$

NCZ024-NYZ072-PAZ021-071-VAZ022-071-241000-
OTHER REGIONAL OBSERVATIONS

CITY           SKY/WX    TMP DP  RH WIND       PRES   REMARKS
NEW YORK CITY  RAIN      59  57  93 MISG      29.80F FOG
PHILADELPHIA   CLOUDY    64  59  83 S25G38    29.70F
PITTSBURGH     CLOUDY    60  52  74 S15G21    29.38S
ROANOKE        CLOUDY    51  50  96 SE6       29.70R
RICHMOND       CLOUDY    67  63  87 S17G25    29.72S
RALEIGH        PTCLDY    63  59  87 S12       29.77F

$$

ANZ530>537-241000-
MARINE OBSERVATIONS

STATION/POSITION TIME  TEMP    WIND        PRES
                       AIR SEA DIR/SP/G
                 (UTC) (F)     (DEG/KT/KT) (MB)
THOMAS PT LIGHT  0900   55 48  180/ 29/ 33 1006.0F
BALT KEY BRIDGE  0900   58     160/ 21/ 24 1003.9R
COVE POINT       0900   56     180/ 20/ 22 1005.9F
LEWISETTA        0900   64 45  190/ 17/ 23 1005.5R
SOLOMONS ISLAND  0900      49                N/A
PINEY POINT      0900          200/ 17/ 19   N/A

$$




USA.gov is the U.S. government's official web portal to all federal, state and local government web resources and services.